Weather History for KMER - June, 2013

Change the Weather History Date:

Wednesday, June 26, 2013

  Actual Average (KMCE) Record (KMCE)
Temperature  
Mean Temperature 80 °F 76 °F  
Max Temperature 95 °F 92 °F 106 °F (2015)
Min Temperature 64 °F 60 °F 54 °F (1999)
Degree Days  
Heating Degree Days 0    
Month to date heating degree days  
Since 1 June heating degree days  
Since 1 July heating degree days  
Cooling Degree Days 14    
Month to date cooling degree days  
Year to date cooling degree days  
Since 1 June cooling degree days  
Growing Degree Days 30 (Base 50)    
Moisture  
Dew Point 64 °F    
Average Humidity 74    
Maximum Humidity 100    
Minimum Humidity 28    
Precipitation  
Precipitation 0.00 in 0.00 in 0.00 in (2015)
Month to date precipitation 0.13  
Year to date precipitation 8.68  
Snow  
Snow 0.00 in - - ()
Month to date snowfall  
Since 1 June snowfall  
Since 1 July snowfall  
Snow Depth -    
Sea Level Pressure  
Sea Level Pressure 29.97 in    
Wind  
Wind Speed 11 mph (North)    
Max Wind Speed 15 mph    
Max Gust Speed 17 mph    
Visibility 10 miles    
Events      
T = Trace of Precipitation, MM = Missing Value Source: NWS Daily Summary

Daily Weather History Graph

Daily Weather History Graph

Search for Another Location

Airport or City:

Trip Planner

Search our weather history database for the weather conditions in past years. The results will help you decide how hot, cold, wet, or windy it might be!

Date:

Astronomy

Jun. 26, 2013 Rise Set
Actual Time 5:43 AM PDT 8:27 PM PDT
Civil Twilight 5:12 AM PDT 8:58 PM PDT
Nautical Twilight 4:33 AM PDT 9:36 PM PDT
Astronomical Twilight 3:49 AM PDT 10:20 PM PDT
Moon 10:59 PM PDT (6/26) 9:36 AM PDT (6/26)
Length of Visible Light 15h 45m
Length of Day
14h 43m
Waning Gibbous, 84% of the Moon is Illuminated
Jun 26
Waning Gibbous
Jun 29
Last Quarter
Jul 8
New
Jul 15
First Quarter
Jul 22
Full

Hourly Weather History & Observations

Time (PDT) Temp. Heat Index Dew Point Humidity Pressure Visibility Wind Dir Wind Speed Gust Speed Precip Events Conditions
12:15 AM 69.8 °F - 66.2 °F 88% 29.95 in 10.0 mi North 15.0 mph - N/A   Clear
12:35 AM 69.8 °F - 66.2 °F 88% 29.95 in 10.0 mi North 13.8 mph - N/A   Clear
12:55 AM 68.0 °F - 66.2 °F 94% 29.95 in 10.0 mi North 11.5 mph 17.3 mph N/A   Clear
1:15 AM 68.0 °F - 66.2 °F 94% 29.95 in 10.0 mi North 12.7 mph - N/A   Clear
1:35 AM 66.2 °F - 66.2 °F 100% 29.96 in 10.0 mi North 10.4 mph - N/A   Clear
1:55 AM 66.2 °F - 66.2 °F 100% 29.96 in 10.0 mi NNE 9.2 mph - N/A   Clear
2:15 AM 66.2 °F - 66.2 °F 100% 29.95 in 10.0 mi North 10.4 mph - N/A   Clear
2:35 AM 66.2 °F - 66.2 °F 100% 29.95 in 10.0 mi North 9.2 mph - N/A   Clear
2:55 AM 66.2 °F - 66.2 °F 100% 29.95 in 10.0 mi North 10.4 mph - N/A   Clear
3:15 AM 64.4 °F - 64.4 °F 100% 29.95 in 10.0 mi North 10.4 mph - N/A   Clear
3:35 AM 64.4 °F - 64.4 °F 100% 29.95 in 10.0 mi North 9.2 mph - N/A   Clear
3:55 AM 64.4 °F - 64.4 °F 100% 29.96 in 10.0 mi North 10.4 mph - N/A   Clear
4:15 AM 64.4 °F - 64.4 °F 100% 29.96 in 10.0 mi North 8.1 mph - N/A   Clear
4:35 AM 64.4 °F - 64.4 °F 100% 29.97 in 10.0 mi North 9.2 mph - N/A   Clear
4:55 AM 64.4 °F - 64.4 °F 100% 29.97 in 10.0 mi North 10.4 mph - N/A   Clear
5:15 AM 64.4 °F - 64.4 °F 100% 29.97 in 10.0 mi North 9.2 mph - N/A   Clear
5:35 AM 64.4 °F - 64.4 °F 100% 29.98 in 10.0 mi North 9.2 mph - N/A   Clear
5:55 AM 64.4 °F - 64.4 °F 100% 29.98 in 10.0 mi North 8.1 mph - N/A   Clear
6:15 AM 64.4 °F - 64.4 °F 100% 29.99 in 10.0 mi North 9.2 mph - N/A   Clear
6:35 AM 66.2 °F - 66.2 °F 100% 30.00 in 10.0 mi North 9.2 mph - N/A   Clear
6:45 AM 66.2 °F - 66.2 °F 100% 30.00 in 10.0 mi NNW 9.2 mph - N/A   Clear
6:55 AM 68.0 °F - 66.2 °F 94% 30.00 in 10.0 mi North 8.1 mph - N/A   Clear
7:45 AM 71.6 °F - 64.4 °F 78% 30.01 in 10.0 mi NNW 11.5 mph - N/A   Clear
8:45 AM 75.2 °F - 64.4 °F 69% 30.02 in 10.0 mi North 13.8 mph - N/A   Clear
9:45 AM 78.8 °F - 64.4 °F 61% 30.02 in 10.0 mi NNW 11.5 mph - N/A   Clear
10:45 AM 82.4 °F 83.4 °F 62.6 °F 51% 30.02 in 10.0 mi NNW 11.5 mph - N/A   Clear
11:45 AM 84.2 °F 85.0 °F 62.6 °F 48% 30.01 in 10.0 mi NNW 9.2 mph - N/A   Clear
12:45 PM 89.6 °F 90.1 °F 62.6 °F 40% 30.00 in 10.0 mi NW 9.2 mph - N/A   Clear
1:55 PM 91.4 °F 91.4 °F 60.8 °F 36% 29.99 in 10.0 mi NW 9.2 mph - N/A   Clear
2:45 PM 93.2 °F 93.3 °F 60.8 °F 34% 29.97 in 10.0 mi NNW 12.7 mph - N/A   Clear
3:45 PM 95.0 °F 94.4 °F 59.0 °F 30% 29.96 in 10.0 mi NNW 6.9 mph - N/A   Clear
4:45 PM 95.0 °F 93.7 °F 57.2 °F 28% 29.94 in 10.0 mi NNW 11.5 mph - N/A   Clear
5:45 PM 93.2 °F 91.9 °F 57.2 °F 30% 29.93 in 10.0 mi NNW 11.5 mph - N/A   Clear
6:45 PM 91.4 °F 90.7 °F 59.0 °F 34% 29.93 in 10.0 mi NNW 11.5 mph - N/A   Clear
7:50 PM 87.8 °F 88.5 °F 62.6 °F 43% 29.93 in 10.0 mi NNW 11.5 mph - N/A   Clear
8:45 PM 82.4 °F 83.9 °F 64.4 °F 54% 29.95 in 10.0 mi NNW 11.5 mph - N/A   Clear
9:15 PM 80.6 °F 82.3 °F 64.4 °F 58% 29.95 in 10.0 mi North 9.2 mph - N/A   Clear
9:35 PM 78.8 °F - 64.4 °F 61% 29.96 in 10.0 mi North 11.5 mph - N/A   Clear
9:55 PM 78.8 °F - 62.6 °F 57% 29.97 in 10.0 mi North 11.5 mph - N/A   Clear
10:15 PM 78.8 °F - 62.6 °F 57% 29.98 in 10.0 mi North 11.5 mph - N/A   Clear
10:35 PM 77.0 °F - 62.6 °F 61% 29.98 in 10.0 mi North 10.4 mph - N/A   Clear
11:15 PM 75.2 °F - 60.8 °F 61% 29.99 in 10.0 mi North 9.2 mph - N/A   Clear
11:35 PM 75.2 °F - 60.8 °F 61% 29.99 in 10.0 mi North 10.4 mph - N/A   Clear
11:55 PM 73.4 °F - 60.8 °F 65% 30.00 in 10.0 mi North 12.7 mph - N/A   Clear